Location: Cahas Mountain Overlook
(37.0833°N, 80.1000°W)
Time: 16:43:08
(UTC-04:00)

Vanguard 1 - Visible Passes

Search period start: 01 October 2022 00:00
Search period end: 11 October 2022 00:00
Orbit: 649 x 3832 km, 34.2° (Epoch: 30 September)

Date Brightness Start Highest point End Pass type
(mag) Time Alt. Az. Time Alt. Az. Time Alt. Az.
01 Oct 10.9 20:33:46 10° W 20:40:18 36° SSW 20:42:53 22° SSE visible
02 Oct 11.1 20:55:04 10° W 21:00:36 26° SW 21:02:33 21° S visible
03 Oct 11.6 21:16:43 10° W 21:20:48 17° SW 21:22:15 16° SSW visible
04 Oct 12.1 21:39:58 10° SW 21:40:54 10° SW 21:41:48 10° SW visible
05 Oct 11.4 19:33:43 10° W 19:42:31 41° SSW 19:47:51 10° SE visible
06 Oct 11.8 19:55:07 10° W 20:02:46 30° SW 20:07:45 10° SSE visible
07 Oct 12.0 20:16:48 10° W 20:22:54 21° SW 20:27:15 10° S visible
08 Oct 12.3 20:39:13 10° WSW 20:42:55 14° SW 20:45:55 10° SSW visible
